Location: Glens Falls
(43.3090°N, 73.6440°W)
Time: 21:31:17
(UTC-04:00)

Daily predictions for brighter satellites

Satellite Brightness Start Highest point End
(mag) Time Altitude Azimuth Time Altitude Azimuth Time Altitude Azimuth
Cosmos 1943 Rocket 3.5 20:03:52 10° SW 20:09:15 46° WNW 20:14:43 10° NNE
Resurs 01 Rocket 2.4 20:05:37 10° S 20:09:57 56° W 20:14:21 10° NNW
Cosmos 1934 Rocket 4.3 20:05:07 10° SSE 20:10:53 45° E 20:16:44 10° NNE
Meteor 1-11 Rocket 3.8 20:06:08 10° S 20:11:45 88° W 20:17:19 10° N
FENGYUN 3A 3.7 20:07:02 10° SSE 20:12:20 67° ENE 20:17:40 10° N
ERS-1 Rocket 4.0 20:08:48 10° ESE 20:13:00 27° ENE 20:17:13 10° N
Meteor 1-29 3.8 20:09:58 10° N 20:13:22 56° WNW 20:16:44 10° SSW
Cosmos 2297 Rocket 3.4 20:09:51 10° N 20:14:35 26° NE 20:19:18 10° ESE
Okean 2 3.8 20:11:41 10° N 20:15:43 44° ENE 20:19:41 10° SSE
EO 1 Delta rocket 4.2 20:13:54 10° NNE 20:18:22 46° E 20:23:14 10° S
NOSS 2-1 (E) 3.6 20:18:42 10° SSW 20:22:28 49° ESE 20:26:47 10° NE
USA 186 1.7 20:20:06 10° SSE 20:23:13 57° ENE 20:26:10 10° N
OTV 4 1.6 20:23:02 10° WSW 20:25:39 28° S 20:27:58 12° ESE
Cosmos 1461 3.9 20:22:47 10° NNW 20:26:29 31° NE 20:29:48 11° ESE
Cosmos 1975 4.2 20:24:41 10° SE 20:27:45 21° E 20:30:50 10° NE
Cosmos 2219 4.1 20:29:30 10° NW 20:34:55 50° WSW 20:40:18 10° S
Cosmos 1777 Rocket 4.0 20:30:18 10° NNW 20:35:34 90° NNW 20:40:51 10° SSE
Lacrosse 5 rocket 2.4 20:35:38 10° NNW 20:38:58 29° NNE 20:41:40 13° E
Cosmos 1544 Rocket 3.5 20:34:47 10° S 20:39:08 82° E 20:43:34 10° N
Cosmos 1315 Rocket 4.0 20:36:44 10° SSW 20:40:34 46° WNW 20:44:30 10° N
Cosmos 2208 Rocket 4.1 20:38:21 10° S 20:43:31 56° ESE 20:48:48 10° NNE
Meteor 2-4 Rocket 4.3 20:38:42 10° NNW 20:44:27 65° W 20:50:18 10° S
USA 215 4.2 20:39:36 10° E 20:45:31 38° NNE 20:51:26 10° NW
CZ-3C R/B 4.4 20:01:14 10° WSW 20:47:55 30° SSW 20:56:55 10° SSE
Cosmos 1821 Rocket 4.1 20:42:52 10° SSW 20:49:00 77° W 20:55:07 10° N
ATLAS CENTAUR R/B 3.6 20:45:31 10° WSW 20:50:09 36° NW 20:54:41 10° NNE
Cosmos 1605 Rocket 4.0 20:45:29 10° S 20:51:46 67° E 20:58:00 10° NNE
Cosmos 2278 3.7 20:48:26 10° S 20:53:58 58° ESE 20:59:34 10° NNE
ALOS 3.4 20:50:58 10° S 20:55:25 44° W 20:59:54 10° NNW
Cosmos 1939 Rocket 3.2 20:53:26 16° SE 20:56:30 51° ENE 21:00:33 10° N
Cosmos 1697 Rocket 3.8 20:54:02 15° SE 20:57:07 23° E 21:01:26 10° NE
NOSS 3-4 (A) 3.9 20:52:47 10° NW 20:59:49 85° SW 21:06:11 15° SSE
NOSS 3-4 (C) 3.9 20:52:54 10° NW 20:59:56 86° SW 21:06:16 15° SSE
Lacrosse 5 3.2 20:55:48 10° NW 21:00:13 29° NNE 21:03:50 14° E
YAOGAN 6 4.1 21:00:20 19° E 21:01:11 21° ENE 21:04:00 10° NNE
H-2A R/B 4.2 20:58:00 10° SSW 21:01:36 38° W 21:05:17 10° NNW
H-2A R/B 4.1 21:00:43 10° ENE 21:02:08 11° ENE 21:03:33 10° NE
Cosmos 1570 Rocket 4.0 20:58:06 10° SSW 21:03:25 90° WNW 21:08:44 10° NNE
NOSS 7 (D) 4.3 21:01:08 10° SSW 21:04:31 61° SE 21:07:52 10° NE
Cosmos 2369 3.6 21:00:51 10° S 21:06:26 65° ESE 21:12:06 10° NNE
SPOT 5 3.5 21:03:41 21° SE 21:06:37 40° ENE 21:11:12 10° N
YAOGAN 11 4.2 21:02:34 10° SSE 21:07:02 85° WSW 21:11:33 10° NNW
Envisat 3.0 21:08:01 17° SSE 21:11:55 70° ENE 21:16:59 10° N
DELTA 2 R/B (1) 3.7 21:10:01 10° W 21:15:28 60° S 21:18:27 27° ESE
Cosmos 1937 Rocket 4.4 21:11:23 10° N 21:16:10 34° ENE 21:18:15 25° ESE
Cosmos 2150 Rocket 4.4 21:12:34 10° N 21:17:31 44° ENE 21:19:44 28° ESE
Cosmos 1980 Rocket 3.5 21:19:03 20° E 21:19:03 20° E 21:22:24 10° NE
Cosmos 2123 Rocket 4.5 21:12:31 10° NNW 21:18:37 61° W 21:24:39 10° S
SPOT 1/Viking Rocket 4.4 21:18:19 25° ESE 21:20:16 33° ENE 21:24:54 10° N
Cosmos 1825 Rocket 4.4 21:16:21 10° NNE 21:20:20 31° ENE 21:21:11 29° E
RESURS DK-1 3.7 21:20:04 10° N 21:23:34 26° NE 21:24:26 24° ENE
Cosmos 1346 Rocket 4.2 21:19:59 10° NNW 21:23:38 36° W 21:27:16 10° SSW
ARGOS 3.9 21:26:41 28° ESE 21:28:29 36° ENE 21:33:23 10° N
CZ-4 DEB 4.5 21:30:12 14° SSW 21:32:21 30° W 21:35:12 10° NNW
deb Chang Zheng 4 3.5 21:28:25 10° NNE 21:32:54 73° ESE 21:35:52 21° S
H-2A R/B 1.8 21:32:15 36° SSE 21:33:54 88° ENE 21:38:03 10° NNW
Iridium 4 Rocket 3.9 21:32:46 10° N 21:38:00 62° W 21:42:11 13° SSW
Cosmos 1626 Rocket 4.2 21:33:53 10° NNW 21:38:12 54° W 21:41:12 19° SSW
ASTEX 1 3.6 21:34:03 10° NNE 21:38:55 50° E 21:40:10 40° SE
Cosmos 1459 Rocket 3.9 21:36:29 23° SSE 21:40:21 64° E 21:46:23 10° NNE
Cosmos 2227 Rocket 2.9 21:37:23 10° NW 21:42:51 50° WSW 21:46:31 20° S
SL-24 R/B - RUBIN 2 4.3 21:38:43 10° SSW 21:44:28 65° ESE 21:50:54 10° NE
CZ-4B R/B 4.0 21:41:14 10° NNE 21:45:03 34° E 21:45:03 34° E
Tiangong 1 1.6 21:42:41 10° W 21:45:06 50° WSW 21:45:06 50° WSW
Cosmos 1758 Rocket 4.2 21:43:19 10° N 21:47:17 37° ENE 21:47:17 37° ENE
Cosmos 2263 Rocket 4.3 21:44:58 10° NNE 21:47:28 13° NE 21:49:27 11° ENE
Cosmos 1898 Rocket 3.4 21:43:12 10° NNW 21:48:34 87° ENE 21:50:22 43° SSE
PSLV R/B 3.9 21:49:47 47° N 21:49:47 47° N 21:52:05 10° N
CZ-4 SHROUD 4.1 21:50:47 42° NNE 21:50:47 42° NNE 21:53:01 10° N
Nimbus 7 Rocket 4.4 21:44:11 10° NNE 21:50:16 89° WNW 21:56:21 10° SSW
Cosmos 1500 3.5 21:50:01 34° SSW 21:51:27 64° W 21:55:12 10° N
ERS-1 Rocket 4.2 21:47:20 12° SSW 21:51:37 38° W 21:56:17 10° NNW
MetOp-B 4.0 21:49:40 37° SSE 21:51:52 89° ENE 21:57:15 10° NNW
Terra 3.1 21:56:54 26° ENE 21:56:54 26° ENE 22:00:45 10° N
Cosmos 1802 Rocket 3.9 21:54:07 28° S 21:57:39 75° E 22:04:05 10° N
Cosmos 2297 Rocket 2.8 21:53:27 10° NW 21:58:55 52° WSW 22:01:34 29° S
OTV 4 3.3 21:59:14 10° WSW 21:59:29 12° WSW 21:59:29 12° WSW
Cosmos 1656 3.7 21:56:36 10° SSW 22:02:15 80° WNW 22:07:51 10° NNE
SL-08 RB Rocket 3.8 22:02:59 57° E 22:03:14 58° ENE 22:07:49 10° N
Cosmos 1763 Rocket 4.1 22:05:17 37° ENE 22:05:17 37° ENE 22:08:58 10° NNE
Cosmos 1461 4.4 22:02:09 10° WNW 22:05:33 26° WSW 22:06:17 25° SW
Cosmos 2058 Rocket 3.9 22:06:47 37° NE 22:06:47 37° NE 22:10:03 10° NNE
SL-08 R/B 4.5 22:05:44 47° SSE 22:07:21 63° E 22:13:28 10° NNE
Cosmos 1340 3.0 22:04:52 10° N 22:08:04 60° N 22:08:04 60° N
Cosmos 468 Rocket 4.0 22:09:55 24° SSW 22:13:01 76° WNW 22:18:10 10° NNE
Lacrosse 5 rocket 2.5 22:14:49 10° WNW 22:17:23 32° W 22:17:23 32° W
Cosmos 1814 Rocket 4.0 22:16:31 34° SSW 22:18:53 80° WNW 22:24:14 10° NNE
Cosmos 1743 3.3 22:19:32 55° WNW 22:19:32 55° WNW 22:23:23 10° N
Cosmos 2016 Rocket 3.9 22:19:14 41° S 22:21:32 86° W 22:27:44 10° N
Cosmos 1606 Rocket 3.6 22:21:42 77° WNW 22:21:42 77° WNW 22:26:00 10° N
Cosmos 841 Rocket 3.9 22:24:02 47° ENE 22:24:02 47° ENE 22:28:03 10° NNE
Cosmos 2084 4.0 22:21:01 10° NW 22:24:26 52° W 22:24:26 52° W
USA 215 3.1 22:26:30 56° SE 22:28:06 89° SSW 22:34:41 10° NW
CARTOSAT-1 4.5 22:33:30 42° NNE 22:33:30 42° NNE 22:36:38 10° N
Cosmos 1842 4.3 22:29:15 10° N 22:31:58 43° NNW 22:31:58 43° NNW
YAOGAN 6 4.5 22:34:50 26° W 22:34:50 26° W 22:37:46 10° NW
Milstar 3 Cent rocket 4.3 22:22:36 10° WSW 22:36:35 35° SSW 22:38:09 33° S
GEOS 3 Rocket 3.7 22:34:19 10° NNE 22:39:26 74° NW 22:41:24 38° SW
Cosmos 1697 Rocket 3.3 22:35:31 12° SW 22:40:40 54° WNW 22:46:13 10° NNE
H-2A R/B 2.0 22:41:13 73° NNE 22:41:13 73° NNE 22:45:45 10° NNW
Meteor 1-15 Rocket 4.2 22:41:03 79° ESE 22:41:08 79° E 22:47:03 10° NNE
SL-16 R/B 3.8 22:44:19 22° NE 22:44:19 22° NE 22:46:37 10° NE
Lacrosse 5 2.1 22:38:33 10° NW 22:43:01 66° WNW 22:43:01 66° WNW
Tsikada Rocket 3.9 22:37:23 10° N 22:43:51 86° W 22:44:43 69° S
Cosmos 2098 Rocket 4.2 22:42:49 47° SSW 22:45:06 78° W 22:51:20 10° N
Cosmos 1726 Rocket 4.4 22:47:06 47° WNW 22:47:06 47° WNW 22:51:00 10° N
Cosmos 1864 Rocket 4.4 22:47:51 68° SSW 22:48:39 81° W 22:54:48 10° N
Cosmos 967 Rocket 4.4 22:48:41 10° NW 22:55:03 77° WSW 22:55:14 76° SW
RESURS DK-1 4.3 22:57:58 10° NW 23:00:21 25° WNW 23:00:21 25° WNW
Cosmos 1980 Rocket 2.6 23:00:44 51° WSW 23:01:48 60° WNW 23:07:27 10° NNE
ARGOS 4.4 23:08:12 30° WSW 23:08:45 31° W 23:13:30 10° NNW
Cosmos 2322 Rocket 3.0 23:33:40 44° NNE 23:33:40 44° NNE 23:37:27 10° NNE
Cosmos 2263 Rocket 2.9 23:26:55 10° NNW 23:31:08 50° N 23:31:08 50° N
Terra 3.4 23:35:48 30° WNW 23:35:48 30° WNW 23:38:48 10° NNW
